Temp
14 14 15 15 15 15 15 15 15 15 14 15 16 16 16 15 15 16 15 15 15 15 14 14 15 14 14 13 13 13 13 13 13 13 12 12 12 12 12 11 10 9 10
14 13 13 14 14 15 15 15 15 15 15 15 15 15 16 16 15 15 15 15 15 15 15 14 14 14 14 14 13 13 13 13 13 12 12 12 12 12 12 12 11 8 9
14 13 13 14 13 14 14 14 15 15 15 15 15 15 15 15 16 15 15 15 15 15 15 14 14 14 14 14 13 13 13 13 13 12 12 12 11 11 11 11 11 10 8
14 14 14 15 13 12 13 13 14 14 15 15 15 15 14 15 15 15 15 15 14 15 14 14 14 14 14 14 14 13 13 13 12 12 12 12 11 11 11 11 11 10 9
14 14 14 13 15 13 10 12 13 13 13 14 14 15 15 14 14 15 15 15 15 14 14 14 14 14 14 14 14 14 14 13 13 12 12 12 11 11 11 10 10 10 10
13 14 14 13 12 14 15 15 11 12 13 13 13 14 14 15 14 14 14 15 15 14 14 14 14 14 14 14 13 14 13 13 13 13 12 12 11 11 10 10 9 10 9
12 13 13 13 12 13 13 12 12 13 14 12 12 13 13 14 14 14 14 14 14 14 14 14 14 14 14 14 13 13 13 13 13 12 12 12 12 11 10 10 10 10 10
11 11 11 13 12 12 12 11 11 13 12 12 12 12 12 13 14 14 14 14 14 14 14 14 14 13 13 14 14 13 13 13 13 13 12 12 12 11 10 10 10 10 9
10 9 9 10 12 10 11 11 10 11 12 12 11 11 13 13 14 15 14 14 14 13 13 13 13 13 13 13 13 13 13 13 13 12 12 12 12 11 11 10 10 10 9
8 8 8 8 10 10 10 11 10 11 11 11 12 12 12 12 14 15 15 15 14 14 14 14 14 13 13 13 13 13 13 13 13 12 12 12 12 11 11 10 10 10 9
5 5 5 6 7 8 9 10 10 10 11 11 10 10 12 11 11 13 15 15 14 14 15 14 14 14 13 13 13 13 13 13 13 13 12 12 12 11 10 10 10 10 9
1 2 1 3 5 6 7 8 8 9 10 11 11 12 12 10 11 11 12 13 14 15 15 15 14 15 15 14 13 13 13 13 13 13 12 12 11 11 11 10 10 10 9
-2 -0 -0 -0 1 4 5 6 7 7 9 10 10 11 9 10 11 10 12 13 14 13 12 13 14 14 14 15 15 14 14 14 13 13 13 12 11 11 11 10 10 10 10
-3 -2 -1 -1 -1 0 1 4 6 8 9 9 10 10 10 10 11 10 12 12 12 11 11 12 11 13 14 14 15 15 15 15 15 14 14 13 12 11 11 11 11 10 10
-3 -3 -2 -1 -1 0 1 1 4 6 8 9 9 9 10 11 11 10 10 12 11 10 11 11 12 12 12 14 15 16 15 15 15 14 14 13 13 12 12 12 12 11 10
-4 -3 -2 -0 0 2 2 2 2 3 6 7 8 8 9 10 11 12 12 12 12 11 10 13 13 13 13 12 14 15 15 15 15 14 14 13 13 12 12 12 12 12 11
-4 -3 -2 -0 1 2 2 2 3 4 5 7 8 9 9 10 12 12 12 13 12 12 9 10 11 12 12 12 12 13 14 15 15 14 14 13 13 12 12 12 11 11 11
-6 -5 -3 -1 1 2 2 3 3 4 4 5 6 6 7 10 12 12 12 12 12 11 10 10 12 12 13 13 12 12 13 13 14 14 14 13 13 12 12 12 12 12 11
-6 -6 -4 -3 -1 0 2 2 3 4 4 5 5 6 8 8 9 10 11 12 11 11 9 10 11 12 11 11 12 13 13 13 14 14 14 14 13 13 12 12 12 11 11
-6 -6 -6 -5 -4 -2 -0 0 1 2 3 3 4 5 7 7 8 8 9 9 9 9 9 9 10 10 10 11 12 13 12 12 14 13 13 14 13 13 12 12 11 11 10
-5 -4 -5 -5 -5 -4 -3 -2 -1 -1 -1 0 1 1 4 5 6 7 7 8 9 9 9 8 9 9 9 9 10 12 12 12 13 13 13 13 13 12 12 11 11 11 10
-5 -4 -4 -4 -4 -5 -3 -2 -1 -2 -2 -2 -2 -1 0 2 2 5 6 7 7 7 8 9 8 9 9 9 9 9 9 10 10 11 12 12 12 11 11 10 10 10 10
-5 -5 -5 -5 -6 -5 -4 -4 -3 -2 -2 -3 -3 -3 -2 -2 -0 0 1 2 3 5 5 5 6 6 8 7 9 9 10 9 9 9 10 10 10 9 9 9 9 9 10
-4 -4 -5 -5 -5 -5 -5 -4 -3 -2 -3 -3 -4 -4 -4 -3 -3 -2 -2 -1 -1 -0 -0 -0 -0 1 2 3 4 4 4 6 6 6 8 8 8 8 8 8 8 8 7
-5 -5 -5 -4 -4 -5 -5 -4 -3 -3 -4 -4 -4 -4 -5 -4 -4 -3 -3 -3 -4 -4 -5 -5 -4 -3 -1 -1 2 1 1 3 3 3 3 4 4 6 6 6 6 7 6
-6 -6 -5 -5 -5 -4 -5 -4 -4 -4 -4 -4 -5 -5 -6 -7 -6 -5 -4 -5 -5 -6 -4 -4 -3 -3 -2 -3 -1 -1 -1 -0 1 -0 0 0 0 1 3 4 4 5 4
Height
1501 1502 1502 1503 1505 1506 1507 1508 1510 1512 1514 1515 1516 1518 1520 1522 1524 1526 1527 1529 1531 1532 1533 1535 1535 1536 1539 1541 1543 1544 1546 1548 1550 1551 1552 1553 1553 1553 1554 1555 1557 1560 1562
1496 1497 1498 1498 1498 1500 1499 1501 1503 1506 1509 1512 1512 1513 1515 1517 1519 1522 1523 1525 1527 1528 1529 1531 1533 1533 1535 1537 1540 1542 1544 1546 1548 1549 1550 1551 1551 1552 1552 1553 1554 1557 1560
1490 1489 1491 1492 1493 1494 1492 1493 1495 1499 1502 1506 1507 1508 1510 1512 1515 1517 1519 1521 1522 1524 1525 1527 1529 1530 1531 1533 1536 1538 1540 1543 1545 1546 1548 1548 1548 1549 1550 1551 1551 1553 1556
1484 1484 1484 1481 1483 1481 1482 1482 1481 1490 1494 1500 1502 1503 1504 1506 1509 1512 1514 1516 1518 1519 1522 1522 1524 1525 1527 1529 1531 1533 1536 1538 1540 1542 1544 1545 1546 1546 1547 1548 1549 1550 1551
1479 1477 1477 1477 1475 1469 1463 1456 1478 1477 1488 1493 1495 1498 1499 1500 1503 1506 1507 1510 1513 1515 1516 1518 1520 1521 1523 1526 1527 1528 1530 1532 1534 1536 1538 1541 1542 1543 1544 1544 1545 1546 1547
1472 1471 1469 1469 1469 1466 1461 1463 1471 1476 1478 1486 1489 1492 1493 1493 1497 1500 1501 1504 1506 1509 1511 1513 1515 1516 1517 1520 1523 1527 1528 1528 1529 1530 1531 1534 1537 1539 1539 1540 1541 1542 1543
1462 1462 1461 1461 1461 1460 1457 1457 1461 1471 1470 1479 1484 1484 1485 1484 1486 1492 1494 1497 1499 1502 1504 1507 1509 1510 1512 1515 1517 1518 1521 1525 1524 1525 1526 1527 1531 1533 1535 1535 1536 1538 1539
1451 1450 1451 1451 1452 1451 1452 1453 1454 1457 1463 1473 1476 1478 1477 1476 1477 1480 1483 1488 1491 1495 1497 1499 1502 1503 1506 1509 1511 1514 1516 1517 1521 1520 1521 1520 1523 1527 1529 1530 1531 1532 1534
1441 1440 1441 1441 1443 1444 1444 1447 1449 1451 1451 1464 1467 1472 1469 1466 1469 1470 1472 1476 1481 1485 1488 1491 1494 1496 1499 1501 1504 1507 1509 1511 1512 1516 1516 1516 1517 1520 1523 1525 1525 1525 1526
1430 1429 1429 1430 1431 1433 1434 1437 1441 1443 1445 1445 1453 1442 1460 1454 1460 1460 1462 1465 1471 1475 1478 1482 1486 1489 1493 1495 1496 1499 1502 1505 1507 1509 1510 1511 1512 1514 1516 1518 1519 1519 1519
1419 1417 1418 1419 1420 1420 1422 1424 1429 1431 1432 1434 1437 1448 1448 1449 1452 1457 1456 1456 1460 1466 1469 1473 1477 1481 1484 1488 1488 1491 1494 1497 1499 1501 1504 1504 1507 1508 1509 1511 1513 1513 1514
1409 1408 1408 1408 1409 1408 1410 1413 1417 1420 1421 1422 1425 1432 1438 1440 1446 1449 1451 1451 1455 1457 1460 1466 1470 1473 1475 1478 1480 1483 1487 1489 1492 1494 1497 1498 1499 1501 1503 1505 1507 1509 1510
1404 1403 1402 1400 1398 1397 1397 1401 1405 1408 1411 1412 1416 1421 1429 1434 1438 1443 1444 1443 1446 1449 1450 1458 1463 1464 1465 1469 1472 1475 1478 1482 1483 1485 1490 1491 1492 1493 1495 1497 1500 1502 1504
1400 1397 1395 1393 1391 1389 1389 1390 1393 1397 1400 1403 1408 1414 1420 1425 1429 1432 1433 1426 1438 1442 1439 1444 1452 1456 1457 1458 1461 1465 1469 1470 1474 1476 1480 1483 1484 1485 1486 1488 1491 1494 1496
1394 1391 1388 1385 1384 1382 1382 1384 1384 1389 1392 1395 1398 1404 1408 1412 1411 1415 1417 1423 1426 1424 1435 1445 1449 1446 1449 1451 1453 1454 1458 1461 1465 1468 1470 1474 1475 1477 1478 1479 1483 1486 1488
1390 1386 1382 1379 1377 1374 1375 1378 1380 1385 1385 1390 1393 1397 1401 1404 1407 1408 1407 1412 1416 1422 1426 1424 1428 1434 1440 1444 1446 1447 1447 1451 1455 1460 1462 1465 1467 1469 1470 1472 1474 1477 1480
1389 1384 1379 1375 1372 1372 1373 1374 1378 1381 1382 1385 1389 1393 1397 1401 1401 1402 1406 1409 1410 1412 1417 1415 1419 1425 1430 1435 1438 1439 1441 1442 1445 1449 1453 1456 1458 1461 1463 1464 1466 1469 1470
1391 1386 1380 1375 1372 1371 1371 1374 1375 1376 1378 1380 1384 1386 1392 1395 1396 1399 1401 1402 1403 1406 1408 1409 1413 1417 1423 1424 1428 1433 1434 1435 1435 1438 1444 1447 1449 1452 1455 1456 1458 1461 1462
1394 1389 1383 1377 1374 1373 1372 1373 1374 1373 1373 1375 1377 1381 1382 1385 1388 1391 1394 1395 1398 1400 1403 1408 1409 1414 1418 1419 1422 1422 1422 1424 1426 1428 1433 1436 1439 1442 1446 1448 1450 1452 1454
1400 1394 1390 1385 1381 1379 1376 1375 1374 1373 1372 1372 1373 1374 1376 1379 1382 1383 1385 1389 1392 1395 1398 1402 1406 1406 1410 1411 1411 1409 1410 1412 1417 1421 1422 1426 1429 1431 1435 1438 1441 1443 1445
1408 1405 1398 1390 1387 1384 1384 1382 1379 1376 1376 1376 1376 1376 1375 1377 1378 1381 1382 1383 1387 1392 1393 1395 1398 1400 1402 1402 1398 1401 1404 1407 1408 1410 1413 1416 1419 1423 1425 1428 1430 1433 1434
1416 1411 1405 1402 1398 1394 1393 1389 1387 1384 1384 1383 1381 1382 1379 1379 1381 1379 1380 1380 1383 1384 1387 1389 1389 1391 1392 1392 1391 1393 1395 1398 1400 1400 1402 1404 1408 1412 1415 1416 1420 1423 1426
1422 1416 1412 1409 1406 1404 1403 1399 1395 1391 1390 1389 1389 1388 1386 1385 1383 1382 1381 1380 1380 1380 1380 1382 1383 1386 1384 1383 1381 1382 1385 1388 1388 1390 1393 1394 1398 1401 1404 1407 1409 1412 1415
1427 1422 1419 1416 1412 1409 1408 1405 1403 1401 1399 1396 1398 1396 1395 1392 1391 1389 1386 1384 1381 1379 1381 1381 1381 1379 1377 1379 1376 1377 1379 1379 1377 1380 1382 1386 1389 1391 1394 1395 1399 1402 1405
1434 1430 1427 1423 1419 1416 1415 1413 1411 1407 1406 1405 1406 1404 1403 1401 1399 1397 1394 1392 1390 1389 1388 1389 1383 1380 1375 1377 1370 1374 1373 1371 1374 1378 1377 1374 1380 1381 1382 1385 1387 1390 1395
1442 1438 1434 1430 1427 1424 1423 1420 1418 1415 1413 1412 1411 1410 1408 1408 1406 1403 1401 1399 1394 1394 1390 1391 1387 1383 1375 1375 1370 1376 1372 1373 1369 1375 1376 1374 1381 1368 1372 1374 1376 1380 1384
Wind_Speed
21 22 25 27 29 30 31 30 29 28 27 27 26 26 25 26 26 26 26 22 21 19 18 18 17 18 21 21 20 18 17 16 15 14 12 11 10 9 10 13 16 16 18
26 24 24 26 29 32 34 34 33 31 30 29 29 29 28 28 28 28 28 26 23 21 20 19 19 18 22 22 22 20 19 18 17 16 14 14 12 11 10 11 11 18 20
17 23 24 30 27 33 36 35 34 33 33 32 33 32 31 30 31 31 30 29 26 24 23 22 20 20 21 22 23 22 21 21 21 17 17 17 15 14 13 12 13 15 20
20 21 22 26 41 30 41 35 32 33 33 35 36 35 35 33 33 33 33 34 31 27 26 25 22 20 21 22 23 22 23 24 23 21 19 18 18 17 17 15 14 14 19
23 26 27 23 27 41 43 21 26 27 31 36 37 39 38 36 36 35 37 35 34 31 29 27 25 22 22 24 24 23 23 24 24 25 24 22 22 20 20 19 16 16 17
26 26 28 26 25 34 39 32 44 24 29 35 40 39 40 38 39 38 37 36 36 35 33 30 28 27 25 25 26 26 25 25 25 25 25 25 25 23 22 21 19 19 20
30 29 30 31 27 30 32 25 39 55 46 38 36 41 38 38 43 41 42 40 37 38 36 34 32 31 29 27 28 28 27 28 27 26 25 25 26 26 24 25 24 21 22
35 35 33 34 31 31 31 34 28 39 64 65 40 38 30 33 41 44 43 45 42 40 38 37 36 35 34 32 31 31 30 29 30 28 28 25 27 27 27 25 24 28 25
37 35 34 34 36 30 33 31 31 36 44 54 60 37 24 22 30 45 44 45 43 43 41 40 39 39 39 37 35 34 32 30 30 31 30 27 25 26 28 27 30 28 29
35 34 33 32 35 34 34 37 33 33 45 54 56 49 43 26 19 29 36 44 43 45 43 42 42 42 41 40 39 38 34 31 28 29 32 30 26 26 28 28 28 34 30
30 30 30 28 32 35 34 38 37 27 43 59 54 49 36 36 32 32 20 24 32 41 47 46 44 44 45 44 43 40 37 33 31 28 29 30 28 25 28 28 27 27 28
27 27 28 27 28 33 33 35 39 37 32 48 60 62 59 41 40 40 36 34 36 35 30 30 38 48 48 47 47 44 40 35 33 32 32 31 30 27 27 29 29 26 27
26 25 25 24 26 28 32 33 37 35 33 40 56 63 52 51 58 46 42 37 40 35 23 25 29 31 36 49 49 47 44 40 36 34 37 35 32 30 28 29 33 30 28
24 24 25 24 22 24 27 29 35 41 40 37 37 45 56 60 55 50 40 43 29 27 37 37 35 40 35 36 43 48 46 40 38 34 35 36 33 32 31 29 30 32 31
20 20 22 23 22 25 24 24 27 33 40 42 38 42 50 36 50 55 57 42 38 20 17 35 46 64 46 40 38 34 41 40 38 36 35 36 33 33 31 30 29 31 31
15 14 14 14 16 14 13 16 19 24 30 35 37 34 31 35 37 37 36 38 43 29 40 48 36 48 56 41 37 32 29 34 33 34 35 35 33 32 32 31 31 30 31
15 12 11 7 4 4 6 9 12 14 17 22 26 32 35 31 30 29 29 29 39 35 37 30 36 46 54 38 31 31 30 29 34 34 36 35 35 35 34 31 30 30 31
24 20 17 13 8 3 3 7 9 11 11 12 14 21 23 28 31 30 29 29 31 34 31 39 42 39 46 43 44 36 31 33 36 37 38 37 36 37 36 34 31 30 31
32 29 26 24 18 14 8 5 4 7 10 13 16 17 21 23 23 27 30 31 30 32 33 41 40 43 47 45 46 41 35 34 35 34 35 37 37 38 38 35 33 33 33
40 38 37 35 30 24 19 15 12 12 10 7 7 11 16 18 26 22 22 26 26 30 31 38 50 40 43 48 45 46 41 37 38 38 39 36 36 37 39 37 36 34 33
42 42 42 43 42 39 32 26 23 23 20 18 18 17 6 6 14 20 21 23 26 33 32 31 38 41 40 38 41 43 39 40 41 41 40 36 36 36 35 37 37 36 34
40 40 43 43 44 44 37 35 31 32 32 29 26 20 16 14 9 3 14 20 24 28 29 30 30 29 33 34 35 37 33 32 36 41 40 39 38 36 35 34 35 35 35
38 40 40 40 41 39 38 39 37 36 36 38 36 32 27 22 17 13 12 3 7 14 16 19 19 21 23 23 32 35 40 39 32 32 38 40 38 34 34 34 35 35 36
37 38 40 39 41 41 37 33 33 34 35 35 35 35 32 30 27 21 20 19 20 17 14 11 8 7 4 10 14 14 18 24 23 20 28 30 34 35 33 31 30 29 29
36 37 36 38 39 40 37 36 34 34 34 33 31 31 31 28 25 22 22 23 22 22 20 17 16 13 9 5 2 1 8 5 9 12 11 14 18 22 26 29 30 34 36
34 34 36 37 36 37 37 35 34 33 33 32 31 32 31 28 24 23 22 22 24 23 19 16 14 15 15 15 13 9 9 5 2 4 6 7 13 8 8 18 23 26 27
Wind_Direction
265 259 256 254 250 249 246 243 242 241 239 235 233 233 234 237 234 228 224 225 225 225 226 223 222 221 225 225 227 224 224 225 222 223 228 232 235 241 241 228 224 204 204
268 263 263 258 257 254 251 247 244 244 245 243 240 238 236 235 237 236 228 225 228 231 226 228 228 227 226 226 226 229 229 231 230 233 240 241 241 242 247 250 242 204 204
288 268 265 252 264 260 255 250 247 244 247 248 246 242 241 236 236 235 235 227 228 233 229 229 235 230 229 227 227 228 230 235 234 243 247 247 242 246 250 258 255 223 208
285 285 277 297 280 281 258 244 240 247 249 251 252 248 243 241 238 236 235 233 232 233 230 227 228 230 231 231 229 230 233 236 237 247 250 251 246 250 255 254 252 251 229
280 281 283 282 281 293 286 262 250 243 256 259 255 255 248 245 241 238 236 234 236 234 233 234 230 230 232 234 230 230 234 238 241 247 250 253 248 248 254 255 255 252 258
279 278 280 279 271 273 283 282 273 261 263 265 264 259 255 249 245 239 237 234 233 235 235 237 237 234 229 230 234 237 239 240 239 244 250 253 249 249 254 253 260 255 253
282 279 278 280 274 270 272 269 250 240 252 255 264 260 255 249 247 241 237 235 235 235 236 238 238 239 239 237 236 235 238 244 243 243 246 249 248 247 250 251 257 253 255
285 283 279 274 273 264 259 257 266 239 236 244 256 254 248 249 243 238 236 236 236 235 236 238 240 241 241 240 241 241 240 243 247 246 247 249 249 250 250 252 253 249 243
283 280 277 270 268 260 251 247 242 243 231 242 249 247 246 237 237 238 235 235 233 233 238 240 243 244 245 244 245 246 248 248 248 251 252 251 250 253 254 260 257 253 235
282 282 276 268 262 259 249 244 243 239 239 233 227 235 244 238 237 231 233 235 236 238 240 242 245 246 248 247 247 248 248 249 247 248 250 250 253 255 254 263 259 261 233
291 287 283 271 261 257 248 244 236 230 239 234 227 236 237 249 249 243 235 232 235 240 243 246 248 250 250 249 249 249 246 244 244 243 247 248 250 253 253 257 262 269 229
300 298 297 284 262 257 250 240 236 231 232 239 230 227 233 248 243 254 246 241 243 242 248 262 262 256 252 251 250 252 248 246 245 245 247 247 247 247 248 253 259 256 241
310 307 300 293 281 260 252 239 232 229 228 236 235 227 233 242 242 256 253 249 251 254 243 257 267 273 268 256 254 252 251 248 247 245 248 245 246 245 242 247 253 250 248
299 298 295 289 284 272 259 245 234 229 226 226 225 229 235 240 242 247 236 232 243 253 245 251 267 270 272 274 263 257 253 250 249 247 247 245 242 243 243 246 248 248 248
308 298 288 287 279 278 268 255 241 234 232 232 234 229 228 250 242 240 235 243 233 238 238 225 263 259 260 270 270 264 252 249 247 245 245 244 242 242 241 242 247 245 244
332 323 306 291 287 289 263 257 248 246 240 239 239 237 232 243 250 254 254 250 248 245 232 237 255 246 249 264 264 260 256 241 244 245 243 243 244 241 240 240 243 246 243
15 12 5 345 313 238 230 262 270 263 252 245 242 242 242 243 250 246 243 247 239 237 239 238 235 231 236 251 264 266 261 255 249 246 243 241 239 242 241 240 242 246 246
43 41 44 47 54 84 190 224 245 261 272 270 260 241 241 242 243 246 248 251 251 245 247 232 237 229 227 245 254 271 268 266 257 252 244 242 240 240 241 239 241 247 246
56 51 52 55 57 64 80 99 148 198 228 250 251 248 236 235 237 245 243 249 247 250 245 234 236 234 230 249 254 262 274 275 257 251 247 239 241 241 242 241 245 248 248
61 60 60 59 60 65 71 77 87 97 108 130 199 229 236 234 236 231 232 240 241 251 248 243 236 244 252 254 254 249 266 277 256 252 247 241 240 240 240 244 247 250 246
66 61 61 65 64 62 62 68 77 78 83 90 86 85 151 200 232 237 232 229 229 236 235 245 243 244 253 256 256 246 253 265 259 247 240 240 238 240 238 240 245 243 241
64 68 68 63 62 65 65 67 66 69 69 66 65 65 75 73 63 284 250 254 255 254 250 248 251 248 245 248 247 247 246 251 241 242 238 236 238 236 240 237 239 241 245
61 63 63 63 62 63 63 62 65 67 66 64 60 60 59 62 67 70 66 47 267 264 259 240 248 246 235 235 237 239 238 229 228 232 235 235 237 237 236 236 238 242 244
54 55 57 57 59 59 56 57 60 59 59 62 60 56 57 55 50 55 63 68 70 80 77 87 101 137 176 248 238 245 243 221 217 213 219 217 223 229 233 236 244 247 251
53 54 54 55 54 54 52 51 53 55 56 57 54 53 50 50 52 50 57 58 61 62 59 59 73 75 76 74 51 357 239 262 247 229 250 228 220 225 231 241 247 254 257
54 53 53 52 54 51 49 48 47 49 50 50 48 47 45 41 39 40 42 47 48 44 47 42 48 49 50 38 56 54 55 51 61 297 311 311 253 271 261 247 250 249 254